| time (UTC) | temp C | wind direction | speed KPH | gust KPH | rain 1hr cm | rain 24hr cm | rain mn cm | humidity % | barometer mb |
| 20260507181717 | 10 | 233 | 0.0 | 3.2 | 0.00 | 0.08 | 0.08 | 91 | 1014.0 |
| 20260507180003 | 10 | 303 | 1.6 | 4.8 | 0.00 | 0.08 | 0.08 | 92 | 1013.8 |
| 20260507174503 | 10 | 179 | 3.2 | 8.0 | 0.00 | 0.08 | 0.08 | 91 | 1013.9 |
| 20260507173003 | 10 | 165 | 3.2 | 6.4 | 0.00 | 0.08 | 0.08 | 91 | 1014.0 |
| 20260507171503 | 10 | 166 | 3.2 | 8.0 | 0.00 | 0.08 | 0.08 | 91 | 1014.0 |
| 20260507170003 | 11 | 161 | 0.0 | 4.8 | 0.05 | 0.08 | 0.08 | 92 | 1014.1 |
| 20260507164718 | 10 | 182 | 4.8 | 8.0 | 0.08 | 0.08 | 0.08 | 92 | 1014.1 |
| 20260507163003 | 10 | 172 | 6.4 | 9.7 | 0.08 | 0.08 | 0.08 | 89 | 1014.2 |
| 20260507161503 | 10 | 200 | 9.7 | 14.5 | 0.08 | 0.08 | 0.08 | 86 | 1014.3 |
| 20260507160003 | 10 | 228 | 11.3 | 24.1 | 0.03 | 0.03 | 0.03 | 84 | 1014.4 |
| 20260507154503 | 11 | 259 | 16.1 | 22.5 | 0.00 | 0.00 | 0.00 | 75 | 1014.3 |
| 20260507153003 | 13 | 264 | 4.8 | 12.9 | 0.00 | 0.00 | 0.00 | 63 | 1014.0 |
| 20260507151503 | 13 | 284 | 3.2 | 8.0 | 0.00 | 0.00 | 0.00 | 62 | 1013.9 |
| 20260507150218 | 13 | 181 | 9.7 | 20.9 | 0.00 | 0.00 | 0.00 | 59 | 1013.9 |
| 20260507144503 | 13 | 128 | 6.4 | 14.5 | 0.00 | 0.00 | 0.00 | 63 | 1013.9 |
| 20260507143003 | 13 | 123 | 8.0 | 27.4 | 0.00 | 0.00 | 0.00 | 61 | 1014.0 |
| 20260507141503 | 13 | 192 | 11.3 | 29.0 | 0.00 | 0.00 | 0.00 | 61 | 1014.2 |
| 20260507140003 | 14 | 195 | 9.7 | 30.6 | 0.00 | 0.00 | 0.00 | 59 | 1014.3 |
| 20260507134503 | 14 | 134 | 6.4 | 19.3 | 0.00 | 0.00 | 0.00 | 62 | 1014.2 |
| 20260507133003 | 15 | 179 | 9.7 | 22.5 | 0.00 | 0.00 | 0.00 | 61 | 1014.3 |
| 20260507131503 | 15 | 119 | 6.4 | 19.3 | 0.00 | 0.00 | 0.00 | 66 | 1014.3 |
| 20260507130003 | 14 | 154 | 6.4 | 19.3 | 0.00 | 0.00 | 0.00 | 63 | 1014.5 |
| 20260507124503 | 14 | 199 | 8.0 | 29.0 | 0.00 | 0.00 | 0.00 | 63 | 1014.5 |
| 20260507123003 | 13 | 189 | 9.7 | 19.3 | 0.00 | 0.00 | 0.00 | 61 | 1014.7 |
| 20260507121503 | 15 | 127 | 8.0 | 20.9 | 0.00 | 0.00 | 0.00 | 64 | 1014.6 |
| 20260507120003 | 15 | 143 | 4.8 | 17.7 | 0.00 | 0.00 | 0.00 | 58 | 1014.6 |
| 20260507114503 | 15 | 127 | 9.7 | 20.9 | 0.00 | 0.00 | 0.00 | 59 | 1014.7 |
| 20260507113219 | 14 | 137 | 8.0 | 20.9 | 0.00 | 0.00 | 0.00 | 67 | 1014.9 |
| 20260507111503 | 13 | 140 | 4.8 | 14.5 | 0.00 | 0.00 | 0.00 | 66 | 1015.0 |
| 20260507110003 | 12 | 192 | 9.7 | 17.7 | 0.00 | 0.00 | 0.00 | 75 | 1015.2 |
| 20260507104503 | 11 | 179 | 4.8 | 14.5 | 0.00 | 0.00 | 0.00 | 75 | 1015.3 |
| 20260507103003 | 11 | 2 | 3.2 | 12.9 | 0.00 | 0.00 | 0.00 | 76 | 1015.3 |
| 20260507101503 | 10 | 103 | 4.8 | 12.9 | 0.00 | 0.00 | 0.00 | 78 | 1015.4 |
| 20260507100003 | 10 | 97 | 1.6 | 12.9 | 0.00 | 0.00 | 0.00 | 79 | 1015.4 |
| 20260507094503 | 10 | 212 | 0.0 | 14.5 | 0.00 | 0.00 | 0.00 | 79 | 1015.4 |
| 20260507093003 | 9 | 201 | 6.4 | 14.5 | 0.00 | 0.00 | 0.00 | 81 | 1015.4 |
| 20260507091503 | 9 | 281 | 3.2 | 6.4 | 0.00 | 0.00 | 0.00 | 84 | 1015.4 |
| 20260507090004 | 8 | 92 | 0.0 | 4.8 | 0.00 | 0.00 | 0.00 | 85 | 1015.5 |
| 20260507084719 | 7 | 59 | 1.6 | 4.8 | 0.00 | 0.00 | 0.00 | 88 | 1015.5 |
| 20260507083003 | 7 | 329 | 1.6 | 3.2 | 0.00 | 0.00 | 0.00 | 89 | 1015.5 |
| 20260507081717 | 7 | 262 | 1.6 | 4.8 | 0.00 | 0.00 | 0.00 | 91 | 1015.5 |
| 20260507080003 | 6 | 0 | 0.0 | 1.6 | 0.00 | 0.00 | 0.00 | 91 | 1015.5 |
| 20260507074503 | 6 | 45 | 1.6 | 3.2 | 0.00 | 0.00 | 0.00 | 92 | 1015.5 |
| 20260507073003 | 6 | 37 | 1.6 | 3.2 | 0.00 | 0.00 | 0.00 | 92 | 1015.5 |
| 20260507071716 | 6 | 58 | 3.2 | 4.8 | 0.00 | 0.00 | 0.00 | 92 | 1015.4 |
| 20260507070005 | 6 | 77 | 1.6 | 4.8 | 0.00 | 0.00 | 0.00 | 92 | 1015.2 |
| 20260507064503 | 6 | 67 | 1.6 | 9.7 | 0.00 | 0.00 | 0.00 | 94 | 1015.1 |
| 20260507063003 | 6 | 98 | 1.6 | 6.4 | 0.00 | 0.00 | 0.00 | 94 | 1015.1 |
| 20260507061503 | 6 | 114 | 3.2 | 11.3 | 0.00 | 0.00 | 0.00 | 94 | 1015.1 |
| 20260507060003 | 6 | 98 | 3.2 | 8.0 | 0.00 | 0.00 | 0.00 | 94 | 1015.1 |
| 20260507054503 | 5 | 122 | 3.2 | 8.0 | 0.00 | 0.00 | 0.00 | 94 | 1015.1 |
| 20260507053003 | 5 | 75 | 0.0 | 4.8 | 0.00 | 0.00 | 0.00 | 94 | 1015.0 |
| 20260507051503 | 5 | 119 | 3.2 | 9.7 | 0.00 | 0.00 | 0.00 | 94 | 1015.1 |
| 20260507050003 | 5 | 130 | 3.2 | 12.9 | 0.00 | 0.00 | 0.00 | 94 | 1015.1 |
| 20260507044503 | 5 | 0 | 0.0 | 0.0 | 0.00 | 0.00 | 0.00 | 92 | 1015.0 |
| 20260507043216 | 5 | 69 | 1.6 | 6.4 | 0.00 | 0.00 | 0.00 | 92 | 1014.9 |
| 20260507041715 | 5 | 59 | 3.2 | 9.7 | 0.00 | 0.00 | 0.00 | 92 | 1014.9 |
| 20260507040003 | 6 | 57 | 3.2 | 4.8 | 0.00 | 0.00 | 0.00 | 92 | 1014.9 |
| 20260507034503 | 6 | 86 | 3.2 | 9.7 | 0.00 | 0.00 | 0.00 | 92 | 1014.9 |
| 20260507033003 | 6 | 104 | 1.6 | 6.4 | 0.00 | 0.00 | 0.00 | 92 | 1014.9 |
| 20260507031503 | 6 | 128 | 3.2 | 9.7 | 0.00 | 0.00 | 0.00 | 91 | 1015.0 |
| 20260507030003 | 6 | 130 | 1.6 | 4.8 | 0.00 | 0.00 | 0.00 | 91 | 1015.0 |
| 20260507024717 | 6 | 252 | 0.0 | 4.8 | 0.00 | 0.00 | 0.00 | 91 | 1015.0 |
| 20260507023003 | 6 | 66 | 1.6 | 4.8 | 0.00 | 0.00 | 0.00 | 89 | 1015.0 |
| 20260507021503 | 6 | 77 | 1.6 | 6.4 | 0.00 | 0.00 | 0.00 | 89 | 1014.9 |
| 20260507020003 | 6 | 59 | 3.2 | 4.8 | 0.00 | 0.00 | 0.00 | 89 | 1015.0 |
| 20260507014716 | 6 | 8 | 0.0 | 4.8 | 0.00 | 0.00 | 0.00 | 88 | 1015.1 |
| 20260507013003 | 6 | 0 | 0.0 | 0.0 | 0.00 | 0.00 | 0.00 | 88 | 1015.1 |
| 20260507011503 | 6 | 40 | 1.6 | 4.8 | 0.00 | 0.00 | 0.00 | 88 | 1015.2 |
| 20260507010003 | 6 | 106 | 3.2 | 9.7 | 0.00 | 0.00 | 0.00 | 88 | 1015.2 |
| 20260507004503 | 6 | 117 | 1.6 | 8.0 | 0.00 | 0.00 | 0.00 | 88 | 1015.2 |
| 20260507003003 | 6 | 156 | 4.8 | 16.1 | 0.00 | 0.00 | 0.00 | 86 | 1015.2 |
| 20260507001503 | 6 | 247 | 1.6 | 9.7 | 0.00 | 0.00 | 0.00 | 85 | 1015.3 |
| 20260507000003 | 6 | 353 | 3.2 | 8.0 | 0.00 | 0.00 | 0.00 | 84 | 1015.2 |
| 20260506234503 | 6 | 94 | 3.2 | 14.5 | 0.00 | 0.00 | 0.00 | 84 | 1015.1 |
| 20260506233003 | 7 | 64 | 3.2 | 11.3 | 0.00 | 0.00 | 0.00 | 82 | 1015.2 |
| 20260506231503 | 7 | 92 | 4.8 | 16.1 | 0.00 | 0.00 | 0.00 | 82 | 1015.0 |
| 20260506230003 | 7 | 97 | 6.4 | 20.9 | 0.00 | 0.00 | 0.00 | 82 | 1014.9 |
| 20260506224503 | 7 | 117 | 9.7 | 22.5 | 0.00 | 0.00 | 0.00 | 82 | 1014.9 |
| 20260506223003 | 7 | 121 | 11.3 | 24.1 | 0.00 | 0.00 | 0.00 | 82 | 1014.8 |
| 20260506221503 | 7 | 121 | 9.7 | 22.5 | 0.00 | 0.00 | 0.00 | 81 | 1014.8 |
| 20260506220216 | 7 | 120 | 11.3 | 22.5 | 0.00 | 0.00 | 0.00 | 79 | 1014.8 |
| 20260506214503 | 7 | 116 | 9.7 | 22.5 | 0.00 | 0.00 | 0.00 | 79 | 1014.6 |
| 20260506213003 | 7 | 123 | 11.3 | 20.9 | 0.00 | 0.00 | 0.00 | 78 | 1014.5 |
| 20260506211503 | 7 | 123 | 9.7 | 20.9 | 0.00 | 0.00 | 0.00 | 78 | 1014.5 |
| 20260506210003 | 8 | 119 | 9.7 | 19.3 | 0.00 | 0.00 | 0.00 | 75 | 1014.4 |
| 20260506204503 | 8 | 123 | 8.0 | 17.7 | 0.00 | 0.00 | 0.00 | 72 | 1014.3 |
| 20260506203218 | 8 | 117 | 6.4 | 16.1 | 0.00 | 0.00 | 0.00 | 70 | 1014.2 |
| 20260506201503 | 9 | 111 | 6.4 | 14.5 | 0.00 | 0.00 | 0.00 | 68 | 1014.1 |
| 20260506200219 | 9 | 112 | 8.0 | 19.3 | 0.00 | 0.00 | 0.00 | 67 | 1014.0 |
| 20260506194503 | 9 | 126 | 3.2 | 11.3 | 0.00 | 0.00 | 0.00 | 67 | 1013.8 |
| 20260506193003 | 10 | 118 | 3.2 | 9.7 | 0.00 | 0.00 | 0.00 | 67 | 1013.7 |
| 20260506191503 | 10 | 114 | 1.6 | 4.8 | 0.00 | 0.00 | 0.00 | 62 | 1013.7 |
| 20260506190003 | 11 | 55 | 0.0 | 3.2 | 0.00 | 0.00 | 0.00 | 61 | 1013.7 |
| 20260506184503 | 11 | 80 | 0.0 | 4.8 | 0.00 | 0.00 | 0.00 | 58 | 1013.6 |
| 20260506183003 | 11 | 75 | 4.8 | 9.7 | 0.00 | 0.00 | 0.00 | 56 | 1013.6 |